CAPE
14 4 7 6 4 4 1 1 4 3 2 1 0 0 0 0 0 0 0 0 0 0 1 0 1 2 0 0 0 0 0 0 0 0 0 0 0 0 0 103 4 0 7 38 18 5 12
3 5 7 8 6 5 6 1 6 4 3 2 1 0 0 0 0 0 0 0 0 0 0 1 3 0 0 0 0 0 0 0 0 0 0 0 0 23 7 0 18 4 35 16 0 0 103
5 6 7 7 5 4 4 2 5 3 3 2 0 0 0 0 0 0 0 0 0 0 0 0 1 0 0 0 0 0 0 0 0 0 0 0 0 0 0 0 0 0 0 0 0 0 15
5 7 4 2 4 3 3 3 1 1 0 0 0 0 0 0 0 0 0 0 0 0 0 1 1 0 0 0 0 0 0 0 0 0 0 0 0 0 0 0 0 0 0 0 0 0 14
5 2 3 1 2 2 1 0 0 0 0 0 0 0 0 0 0 0 0 0 0 0 1 1 0 0 0 0 0 0 0 0 0 0 0 0 0 0 0 0 0 0 0 0 0 0 1
5 5 5 7 3 2 1 0 0 0 0 0 0 0 0 0 0 0 0 0 0 0 0 0 0 0 0 0 0 0 0 0 0 0 0 0 0 0 0 0 0 0 0 0 0 0 0
4 4 4 4 3 2 1 0 0 0 0 0 0 0 0 0 0 0 0 0 0 0 0 0 0 0 0 0 0 0 0 0 0 0 0 0 0 0 0 0 0 0 0 0 0 0 0
3 4 4 4 3 2 2 1 0 0 0 0 0 0 0 0 0 0 0 0 0 0 0 0 0 0 0 0 0 0 0 0 0 0 0 0 0 0 0 0 0 0 0 0 0 0 0
7 4 3 1 2 0 0 0 0 0 0 0 0 0 0 0 0 0 0 0 0 0 0 0 0 0 0 0 0 0 0 0 0 0 0 0 0 0 0 0 0 0 0 0 0 0 0
5 2 4 1 0 0 0 0 0 0 0 0 0 0 0 0 0 0 0 0 0 0 0 0 0 0 0 0 0 0 0 0 0 0 0 0 0 0 0 0 0 0 0 0 0 0 0
4 1 3 1 0 0 0 0 0 0 0 0 0 0 0 0 0 0 0 0 0 0 0 0 0 0 0 0 0 0 0 0 0 0 0 0 0 0 0 0 0 0 0 0 0 0 0
4 5 6 5 3 2 0 0 1 0 0 0 0 0 0 0 0 0 0 0 0 0 0 0 0 0 0 0 0 0 0 0 0 0 0 0 0 0 0 0 0 0 0 0 0 0 0
4 3 5 5 2 1 1 1 1 0 0 0 0 0 0 0 0 0 0 0 0 0 0 0 0 0 0 0 0 0 0 0 0 0 0 0 0 0 0 0 0 0 0 0 0 0 0
2 6 5 2 1 1 0 0 0 0 0 0 0 0 0 0 0 0 0 0 0 0 0 0 0 0 0 0 0 0 0 0 0 0 0 0 0 0 0 0 0 0 0 0 0 0 0
2 5 2 0 0 0 0 0 0 0 0 0 0 0 0 0 0 0 0 0 0 0 0 0 0 0 0 0 0 0 0 0 0 0 0 0 0 0 0 0 0 0 0 0 0 0 0
4 5 1 0 0 0 0 0 0 0 0 0 0 0 0 0 0 0 0 0 0 0 0 0 0 0 0 0 0 0 0 0 0 0 0 0 0 0 0 0 0 0 0 0 0 0 0
3 1 0 0 0 0 0 0 0 0 0 0 0 0 0 0 0 0 0 0 0 0 0 0 0 0 0 0 0 0 0 0 0 0 0 0 0 0 0 0 0 0 0 0 0 0 0
2 0 1 0 0 0 2 0 0 0 0 0 0 0 0 0 0 0 0 0 0 0 0 0 0 0 0 0 0 0 0 0 0 0 0 0 0 0 0 0 0 0 0 0 0 0 0
3 2 2 2 0 3 0 0 0 0 0 0 0 0 0 0 0 0 0 0 0 6 25 7 1 3 1 0 0 0 0 0 0 0 0 0 0 0 0 0 0 0 0 0 0 0 0
3 4 5 1 0 0 0 0 0 0 0 0 0 0 0 0 0 0 2 0 0 4 28 13 2 0 0 1 0 0 0 0 0 0 0 0 0 0 0 0 0 0 0 0 0 0 0
2 2 1 0 0 0 0 0 0 0 0 0 0 0 0 0 0 2 10 0 2 6 0 3 0 0 1 0 0 0 0 0 0 0 0 0 0 0 0 0 0 0 0 0 0 0 0
0 1 1 0 0 1 1 0 3 4 0 0 0 7 5 3 5 3 4 1 1 5 5 0 14 1 0 1 1 0 0 0 0 0 0 0 0 0 0 0 0 0 0 0 0 0 0
0 2 1 0 0 0 2 0 6 17 0 4 4 6 3 0 7 6 6 3 1 10 0 9 1 0 0 0 0 0 0 0 0 0 0 0 0 0 0 0 0 0 0 0 0 0 0
0 0 0 0 0 0 0 1 3 27 21 11 1 5 5 0 8 5 8 8 1 1 3 1 0 0 0 0 0 0 0 0 0 0 0 0 0 0 0 0 0 0 0 0 0 0 0
0 0 0 0 0 0 0 0 21 25 22 15 20 23 4 1 6 2 8 12 19 7 1 0 0 0 0 0 0 0 0 0 0 0 0 0 0 0 0 0 0 0 0 0 0 0 0
0 0 0 0 0 0 0 2 16 55 11 6 2 17 19 0 0 1 8 11 3 4 2 2 0 0 0 0 2 0 0 0 0 0 0 0 0 0 0 0 0 0 0 0 0 0 0
0 0 0 0 0 0 0 3 15 48 31 23 6 0 9 0 0 2 4 5 8 1 3 3 0 0 0 0 1 0 1 0 0 0 0 1 0 0 0 0 0 0 0 0 0 0 0
0 0 0 0 0 0 0 5 16 39 36 25 6 0 2 3 1 1 2 5 5 7 2 2 1 3 8 8 7 11 5 5 0 0 0 2 1 1 0 0 0 0 0 0 0 0 0
0 0 0 0 0 0 2 3 12 30 40 38 10 0 0 4 0 0 0 1 0 3 11 9 4 4 1 0 1 1 5 4 3 1 0 0 0 11 0 0 0 0 0 0 0 0 0
CIN
-0 -0 -0 -0 -0 -0 -0 -0 -0 -0 -0 -0 -0 -0 -0 -0 -0 -0 -0 -0 -0 -0 -0 -0 -0 -0 -0 -0 -0 -0 -0 -0 -0 -0 -0 -0 -0 -0 -0 -204 -104 -0 -138 -115 -121 -77 -119
-0 -0 -0 -0 -0 -0 -0 -0 -0 -0 -0 -0 -0 -0 -0 -0 -0 -0 -0 -0 -0 -0 -0 -0 -0 -0 -0 -0 -0 -0 -0 -0 -0 -0 -0 -0 -0 -167 -68 -0 -85 -57 -177 -105 -0 -0 -89
-0 -0 -0 -0 -0 -0 -0 -0 -0 -0 -0 -0 -0 -0 -0 -0 -0 -0 -0 -0 -0 -0 -0 -0 -0 -0 -0 -0 -0 -0 -0 -0 -0 -0 -0 -0 -0 -0 -0 -0 -0 -0 -0 -0 -0 -0 -97
-0 -0 -0 -0 -0 -0 -0 -0 -0 -0 -0 -0 -0 -0 -0 -0 -0 -0 -0 -0 -0 -0 -0 -0 -0 -0 -0 -0 -0 -0 -0 -0 -0 -0 -0 -0 -0 -0 -0 -0 -0 -0 -0 -0 -0 -0 -132
-0 -0 -0 -0 -0 -0 -0 -0 -0 -0 -0 -0 -0 -0 -0 -0 -0 -0 -0 -0 -0 -0 -0 -0 -0 -0 -0 -0 -0 -0 -0 -0 -0 -0 -0 -0 -0 -0 -0 -0 -0 -0 -0 -0 -0 -0 -17
-0 -0 -0 -0 -0 -0 -0 -0 -0 -0 -0 -0 -0 -0 -0 -0 -0 -0 -0 -0 -0 -0 -0 -0 -0 -0 -0 -0 -0 -0 -0 -0 -0 -0 -0 -0 -0 -0 -0 -0 -0 -0 -0 -0 -0 -0 -0
-0 -0 -0 -0 -0 -0 -0 -0 -0 -0 -0 -0 -0 -0 -0 -0 -0 -0 -0 -0 -0 -0 -0 -0 -0 -0 -0 -0 -0 -0 -0 -0 -0 -0 -0 -0 -0 -0 -0 -0 -0 -0 -0 -0 -0 -0 -0
-0 -0 -0 -0 -0 -0 -0 -0 -0 -0 -0 -0 -0 -0 -0 -0 -0 -0 -0 -0 -0 -0 -0 -0 -0 -0 -0 -0 -0 -0 -0 -0 -0 -0 -0 -0 -0 -0 -0 -0 -0 -0 -0 -0 -0 -0 -0
-0 -0 -1 -0 -0 -0 -0 -0 -0 -0 -0 -0 -0 -0 -0 -0 -0 -0 -0 -0 -0 -0 -0 -0 -0 -0 -0 -0 -0 -0 -0 -0 -0 -0 -0 -0 -0 -0 -0 -0 -0 -0 -0 -0 -0 -0 -0
-0 -1 -1 -0 -0 -0 -0 -0 -0 -0 -0 -0 -0 -0 -0 -0 -0 -0 -0 -0 -0 -0 -0 -0 -0 -0 -0 -0 -0 -0 -0 -0 -0 -0 -0 -0 -0 -0 -0 -0 -0 -0 -0 -0 -0 -0 -0
-0 -0 -0 -1 -0 -0 -0 -0 -0 -0 -0 -0 -0 -0 -0 -0 -0 -0 -0 -0 -0 -0 -0 -0 -0 -0 -0 -0 -0 -0 -0 -0 -0 -0 -0 -0 -0 -0 -0 -0 -0 -0 -0 -0 -0 -0 -0
-0 -0 -0 -0 -0 -0 -0 -0 -0 -0 -0 -0 -0 -0 -0 -0 -0 -0 -0 -0 -0 -0 -0 -0 -0 -0 -0 -0 -0 -0 -0 -0 -0 -0 -0 -0 -0 -0 -0 -0 -0 -0 -0 -0 -0 -0 -0
-0 -0 -0 -0 -0 -0 -0 -0 -1 -0 -0 -0 -0 -0 -0 -0 -0 -0 -0 -0 -0 -0 -0 -0 -0 -0 -0 -0 -0 -0 -0 -0 -0 -0 -0 -0 -0 -0 -0 -0 -0 -0 -0 -0 -0 -0 -0
-0 -0 -0 -0 -0 -0 -0 -0 -0 -0 -0 -0 -0 -0 -0 -0 -0 -0 -0 -0 -0 -0 -0 -0 -0 -0 -0 -0 -0 -0 -0 -0 -0 -0 -0 -0 -0 -0 -0 -0 -0 -0 -0 -0 -0 -0 -0
-0 -0 -0 -0 -0 -0 -0 -0 -0 -0 -0 -0 -0 -0 -0 -0 -0 -0 -0 -0 -0 -0 -0 -0 -0 -0 -0 -0 -0 -0 -0 -0 -0 -0 -0 -0 -0 -0 -0 -0 -0 -0 -0 -0 -0 -0 -0
-0 -0 -0 -0 -0 -0 -0 -0 -0 -0 -0 -0 -0 -0 -0 -0 -0 -0 -0 -0 -0 -0 -0 -0 -0 -0 -0 -0 -0 -0 -0 -0 -0 -0 -0 -0 -0 -0 -0 -0 -0 -0 -0 -0 -0 -0 -0
-0 -0 -0 -0 -0 -0 -0 -0 -0 -0 -0 -0 -0 -0 -0 -0 -0 -0 -0 -0 -0 -0 -0 -0 -0 -0 -0 -0 -0 -0 -0 -0 -0 -0 -0 -0 -0 -0 -0 -0 -0 -0 -0 -0 -0 -0 -0
-0 -0 -1 -0 -0 -0 -0 -0 -0 -0 -0 -0 -0 -0 -0 -0 -0 -0 -0 -0 -0 -0 -0 -0 -0 -0 -0 -0 -0 -0 -0 -0 -0 -0 -0 -0 -0 -0 -0 -0 -0 -0 -0 -0 -0 -0 -0
-0 -0 -0 -0 -0 -0 -0 -0 -0 -0 -0 -0 -0 -0 -0 -0 -0 -0 -0 -0 -0 -0 -3 -5 -4 -9 -15 -0 -0 -0 -0 -0 -0 -0 -0 -0 -0 -0 -0 -0 -0 -0 -0 -0 -0 -0 -0
-0 -0 -0 -0 -0 -0 -0 -0 -0 -0 -0 -0 -0 -0 -0 -0 -0 -0 -0 -0 -0 -4 -0 -0 -0 -0 -0 -7 -0 -0 -0 -0 -0 -0 -0 -0 -0 -0 -0 -0 -0 -0 -0 -0 -0 -0 -0
-0 -0 -0 -0 -0 -0 -0 -0 -0 -0 -0 -0 -0 -0 -0 -0 -0 -3 -0 -0 -0 -0 -0 -0 -0 -0 -0 -0 -0 -0 -0 -0 -0 -0 -0 -0 -0 -0 -0 -0 -0 -0 -0 -0 -0 -0 -0
-0 -0 -0 -0 -0 -0 -0 -0 -1 -2 -0 -0 -0 -0 -0 -0 -0 -1 -1 -0 -0 -0 -0 -0 -0 -0 -0 -0 -0 -0 -0 -0 -0 -0 -0 -0 -0 -0 -0 -0 -0 -0 -0 -0 -0 -0 -0
-0 -0 -0 -0 -0 -0 -0 -0 -3 -0 -0 -3 -5 -3 -3 -6 -2 -1 -0 -1 -4 -1 -0 -0 -0 -0 -0 -0 -0 -0 -0 -0 -0 -0 -0 -0 -0 -0 -0 -0 -0 -0 -0 -0 -0 -0 -0
-0 -0 -0 -0 -0 -0 -0 -0 -2 -3 -3 -1 -1 -0 -0 -0 -0 -1 -0 -1 -3 -0 -0 -0 -0 -0 -0 -0 -0 -0 -0 -0 -0 -0 -0 -0 -0 -0 -0 -0 -0 -0 -0 -0 -0 -0 -0
-0 -0 -0 -0 -0 -0 -0 -0 -0 -3 -2 -2 -2 -0 -0 -0 -0 -0 -1 -0 -0 -0 -0 -0 -0 -0 -0 -0 -0 -0 -0 -0 -0 -0 -0 -0 -0 -0 -0 -0 -0 -0 -0 -0 -0 -0 -0
-0 -0 -0 -0 -0 -0 -0 -0 -0 -1 -5 -5 -5 -6 -0 -0 -0 -1 -0 -0 -1 -1 -0 -1 -0 -0 -0 -0 -0 -0 -0 -0 -0 -0 -0 -0 -0 -0 -0 -0 -0 -0 -0 -0 -0 -0 -0
-0 -0 -0 -0 -0 -0 -0 -0 -0 -0 -1 -0 -2 -3 -0 -0 -0 -0 -0 -0 -0 -1 -1 -6 -0 -0 -0 -0 -0 -1 -0 -0 -0 -0 -0 -0 -0 -0 -0 -0 -0 -0 -0 -0 -0 -0 -0
-0 -0 -0 -0 -0 -0 -0 -0 -0 -0 -0 -0 -3 -0 -0 -0 -0 -0 -0 -0 -0 -0 -0 -0 -1 -2 -1 -0 -0 -0 -0 -0 -0 -0 -0 -0 -2 -0 -0 -0 -0 -0 -0 -0 -0 -0 -0
-0 -0 -0 -0 -0 -0 -0 -0 -0 -0 -0 -0 -0 -0 -0 -0 -0 -0 -0 -1 -0 -0 -0 -1 -3 -4 -5 -0 -0 -0 -2 -0 -0 -0 -0 -0 -0 -0 -0 -0 -0 -0 -0 -0 -0 -0 -0
Wind_Speed
34 34 34 34 35 35 35 35 36 36 37 38 38 38 38 38 38 38 38 37 35 33 31 29 28 26 21 10 17 13 11 10 13 14 19 10 15 8 12 11 18 29 24 18 23 20 13
34 35 35 35 35 36 36 37 37 37 38 38 39 39 40 39 39 40 41 39 38 36 34 32 26 19 17 2 12 5 4 9 14 15 18 12 9 10 13 18 25 22 28 25 23 21 12
35 35 35 36 36 37 37 38 38 39 39 40 40 41 41 40 41 41 41 41 40 38 36 28 15 14 17 19 13 7 10 12 15 17 16 16 10 9 13 21 29 30 26 22 18 6 7
36 36 37 37 38 38 38 39 39 40 41 41 42 42 42 42 42 42 41 41 36 31 24 16 9 13 21 18 11 10 4 3 13 13 8 8 9 9 18 19 20 21 20 16 8 7 5
36 37 38 38 39 39 40 40 41 41 42 43 43 44 45 45 45 45 42 36 28 23 15 9 13 18 24 16 19 4 2 1 13 10 3 7 11 16 22 37 30 24 28 20 13 10 14
37 38 39 39 39 40 41 42 42 43 44 44 45 45 47 47 48 44 41 27 21 20 17 19 18 22 23 19 13 8 4 6 2 15 11 5 15 21 18 14 25 28 29 26 23 18 16
38 39 39 39 40 41 42 43 44 45 46 46 47 47 48 49 48 42 36 26 29 26 25 25 21 23 22 17 9 11 9 6 3 12 12 16 9 25 24 32 33 25 30 36 29 27 24
38 39 40 41 42 42 43 44 45 46 47 48 48 48 49 49 47 36 29 26 25 31 38 32 37 39 32 21 19 9 13 8 9 12 10 7 30 13 27 32 28 30 41 39 32 26 27
39 40 41 41 42 43 44 45 47 47 48 49 49 49 50 50 42 32 28 23 29 29 36 35 27 29 27 20 22 13 16 14 15 15 27 25 11 19 12 21 25 19 37 41 30 24 27
40 41 41 42 43 44 45 46 47 48 49 50 50 50 50 50 31 36 28 30 34 25 38 35 28 25 20 21 32 18 16 15 19 21 15 35 17 14 24 27 17 20 23 44 42 35 38
39 41 42 42 43 44 45 47 48 49 50 51 50 50 49 37 35 34 34 36 32 21 43 24 22 14 15 20 23 25 19 21 20 17 18 16 17 13 28 31 29 43 27 28 39 43 40
39 40 41 42 44 45 46 47 48 49 51 52 52 51 48 33 32 34 36 34 20 32 44 28 22 22 21 23 23 19 25 25 23 24 25 23 24 16 17 13 21 24 16 20 26 36 49
40 41 42 42 43 44 45 47 48 49 50 51 52 52 39 32 36 40 34 25 32 41 30 32 30 26 26 26 25 22 23 30 26 25 26 23 24 19 15 14 12 17 14 18 35 42 45
40 41 41 42 42 43 44 45 46 48 50 51 52 46 32 31 36 37 30 27 42 34 36 31 31 34 29 26 26 25 25 32 31 29 27 29 35 24 16 15 16 27 22 13 26 43 42
40 40 40 40 41 42 43 42 42 43 46 48 47 38 32 35 38 32 30 35 35 34 34 37 35 33 31 27 27 27 27 30 30 31 33 32 40 24 23 22 19 19 36 23 39 29 33
38 39 39 39 39 40 40 39 38 39 41 43 41 35 33 39 33 28 29 34 31 29 33 32 37 32 36 33 29 27 27 27 33 29 31 29 34 32 23 25 27 22 16 17 29 41 41
37 36 36 37 36 38 40 41 41 40 40 37 32 34 34 40 27 26 32 33 33 33 32 32 35 38 35 33 30 29 28 23 26 32 30 33 33 27 25 33 26 25 20 21 16 39 37
34 35 33 36 38 40 41 42 41 39 39 35 31 32 33 33 30 26 30 33 33 32 30 32 33 33 34 32 32 30 30 26 23 26 34 31 34 38 32 29 32 28 27 24 32 35 45
33 32 34 36 37 37 40 39 38 36 35 31 31 23 25 27 30 30 29 27 29 29 29 29 32 31 30 32 35 29 27 23 23 22 27 30 38 41 40 32 29 38 34 28 29 33 48
32 33 34 35 35 34 35 35 34 33 31 28 27 27 22 22 23 28 29 27 27 26 24 26 26 28 33 35 32 33 31 26 25 24 25 26 34 44 46 41 30 35 35 34 32 46 48
30 31 29 30 30 33 32 33 32 30 27 25 25 23 21 22 23 28 26 27 28 25 23 22 23 24 30 37 37 38 33 32 28 26 26 28 37 37 38 36 37 39 40 37 43 49 57
27 27 27 27 29 29 30 30 29 29 24 23 24 24 21 17 16 20 24 24 26 25 26 26 26 23 23 27 32 39 35 33 34 30 30 30 38 37 45 41 42 47 45 44 44 47 53
27 29 26 25 25 27 28 27 26 25 21 21 19 17 18 19 17 15 17 23 27 30 24 21 26 30 29 30 29 33 35 38 39 38 36 36 37 40 48 42 46 57 53 50 47 45 46
29 23 24 23 24 25 26 25 26 21 15 15 16 16 15 18 15 10 7 19 26 28 27 30 31 31 27 29 32 32 34 38 40 42 39 38 38 39 46 40 57 44 35 39 47 51 51
29 23 24 23 24 24 25 23 20 21 14 11 12 13 13 15 12 9 4 6 17 26 29 29 28 25 26 28 29 30 29 31 34 39 40 40 40 42 48 52 53 53 38 37 38 47 43
24 21 23 25 25 25 25 22 17 17 15 10 8 8 9 11 11 7 7 3 24 27 27 24 24 24 22 24 26 31 36 32 34 31 31 38 41 44 43 55 60 42 40 38 34 53 33
20 21 23 25 26 25 26 21 18 16 13 9 8 4 8 11 6 1 4 2 6 14 25 24 21 21 19 23 28 30 32 28 34 35 34 36 43 54 54 55 51 42 31 27 45 40 32
20 20 23 26 25 25 24 20 19 17 12 7 8 2 4 8 5 1 7 6 10 13 15 14 24 17 19 21 24 27 29 28 31 33 34 38 42 47 51 56 66 40 41 44 36 34 35
20 21 22 22 22 24 24 22 21 18 12 5 8 3 4 3 3 2 8 12 15 17 17 17 18 19 17 17 19 21 26 27 29 36 29 41 43 42 45 49 42 40 46 45 40 42 40
Wind_Direction
356 357 354 353 351 347 344 341 339 336 333 330 326 322 318 313 309 304 298 292 284 278 270 266 274 303 321 3 193 327 3 66 128 142 150 164 161 232 252 266 246 205 228 261 211 215 130
358 356 355 353 352 349 347 343 339 335 332 330 327 324 319 315 310 306 301 295 288 278 270 267 293 318 327 279 347 22 54 113 130 149 155 159 194 240 258 260 239 246 206 237 215 196 99
359 356 354 352 349 346 345 343 341 338 334 331 327 323 320 315 312 308 305 300 292 281 274 293 317 321 315 205 336 356 125 140 145 152 162 163 250 194 270 256 238 231 243 259 267 343 353
360 357 354 352 349 347 345 343 340 337 336 333 329 324 320 317 312 309 306 304 303 306 308 312 317 314 304 310 298 323 77 91 144 148 174 226 247 208 259 262 260 258 260 271 294 289 336
360 356 355 353 351 349 346 343 341 338 335 332 330 327 323 320 316 312 310 309 323 339 346 357 319 302 299 319 284 221 106 104 134 133 190 235 239 256 257 221 240 253 244 258 274 267 276
359 356 354 352 350 349 346 343 341 338 335 332 329 328 325 322 318 314 313 325 335 336 332 317 311 294 290 299 304 276 213 133 159 135 129 245 246 249 249 186 242 245 242 246 255 269 274
358 356 354 352 350 347 345 343 340 337 334 331 329 327 326 321 320 317 323 324 313 309 307 292 296 286 295 294 313 282 177 159 215 149 158 158 202 190 190 240 241 251 245 225 248 255 265
2 358 355 353 350 348 345 343 340 338 334 332 329 327 325 322 320 323 328 320 322 308 290 291 274 266 269 284 276 268 173 219 205 185 168 180 191 203 246 243 248 249 229 215 242 258 260
0 356 356 355 351 349 345 343 340 338 335 334 331 328 324 323 319 329 324 322 323 320 292 291 287 277 268 263 265 248 187 226 204 193 184 184 289 181 214 245 243 212 197 223 251 261 262
357 356 355 353 351 347 345 343 341 338 335 334 332 330 327 323 325 323 317 316 316 316 287 285 285 283 273 262 260 254 207 229 251 206 215 201 205 173 186 192 211 224 234 237 240 250 245
2 359 356 355 353 351 348 345 342 339 336 334 331 330 327 332 323 319 315 312 310 310 276 290 285 293 283 256 272 252 208 243 245 241 238 239 201 221 189 191 185 223 253 256 252 246 252
3 1 358 355 353 350 348 346 343 341 338 334 332 328 326 331 328 323 317 311 305 281 269 279 285 279 274 264 270 270 235 246 254 254 249 252 260 230 251 206 185 250 256 260 265 257 232
3 0 358 356 354 353 350 347 344 341 338 336 333 327 329 328 322 322 318 305 278 267 284 276 273 278 275 265 262 262 239 222 233 238 244 243 253 251 243 242 207 188 188 254 252 245 229
3 1 360 359 358 357 355 353 351 348 344 340 335 332 332 327 324 321 315 286 268 276 271 283 279 273 265 270 261 259 251 229 234 242 247 242 249 239 229 221 246 188 191 209 240 242 246
5 4 5 5 4 2 1 359 359 357 354 349 345 342 336 331 323 317 302 275 274 275 279 276 274 265 263 266 266 259 252 241 236 243 246 243 248 251 240 240 233 237 196 196 251 267 260
8 9 9 9 8 7 7 7 5 3 0 358 353 348 341 336 330 314 292 278 276 285 284 276 262 267 259 263 259 256 249 259 244 248 251 251 252 249 234 241 240 246 226 239 194 218 229
11 12 12 12 13 11 7 5 3 3 2 6 7 351 351 341 345 315 287 281 281 282 285 272 265 262 262 260 260 256 254 261 260 250 251 248 249 252 236 234 228 238 222 246 246 225 221
14 12 15 12 8 5 4 4 5 6 5 11 12 359 0 360 336 321 297 291 286 282 280 269 268 264 259 260 255 254 250 254 272 262 244 248 248 243 245 246 243 238 242 229 250 248 222
14 15 12 10 10 12 8 7 9 10 12 13 12 18 14 13 337 322 314 302 293 286 279 270 262 264 262 256 251 254 254 264 272 267 253 251 245 240 243 248 247 243 244 242 249 259 220
16 15 12 13 14 15 13 12 13 14 16 20 19 15 23 24 21 343 319 309 297 295 279 276 273 265 259 253 254 252 254 259 269 265 264 256 247 241 240 244 250 246 246 244 244 248 241
19 16 20 19 19 17 15 13 16 16 21 24 24 22 23 14 12 353 333 312 304 294 290 285 268 272 263 252 250 251 256 259 261 265 261 255 246 248 248 251 251 251 250 250 248 248 233
17 18 18 18 16 16 15 14 15 17 23 24 20 19 21 13 17 10 348 321 307 304 293 275 268 279 276 259 256 252 257 255 254 258 256 259 249 251 249 252 253 251 250 251 252 252 250
15 12 14 13 13 13 13 13 14 17 25 23 25 27 23 17 18 16 6 329 308 302 298 291 278 276 272 269 270 269 262 258 256 255 254 254 251 250 247 253 254 249 247 250 253 255 255
10 13 12 11 10 8 8 9 8 11 20 22 23 23 22 12 14 18 10 247 264 291 295 286 284 274 274 287 282 273 264 258 255 253 250 251 249 249 249 251 243 250 257 257 254 255 256
6 7 5 4 3 1 360 360 2 4 7 14 20 23 24 12 16 8 22 218 239 274 288 288 285 282 287 279 269 266 259 258 256 252 246 245 246 248 246 245 251 252 254 254 257 256 262
2 358 358 357 356 355 354 351 346 352 360 4 8 27 29 12 18 30 29 62 254 265 276 296 293 292 286 273 264 257 251 255 252 253 253 245 245 246 245 244 244 253 254 260 262 257 265
354 352 352 352 352 351 351 345 345 345 346 0 4 47 31 14 5 37 54 93 96 273 287 277 303 301 298 271 258 257 257 261 252 250 247 245 244 242 244 246 250 253 260 259 249 255 272
348 346 348 348 346 346 346 341 342 346 345 350 11 130 45 15 344 258 221 200 203 191 199 257 281 306 291 274 265 260 260 263 260 258 253 248 246 245 244 246 245 254 253 251 261 268 274
341 340 340 340 336 343 344 345 347 344 344 344 5 72 152 61 20 80 223 219 209 207 202 189 194 272 296 291 284 280 267 268 264 258 262 253 249 251 246 248 255 259 256 262 267 268 274